CAPE
653 1206 1480 1686 1924 1705 1618 1746 1681 1807 1528 1873 1948 1813 1783 1718 1766 1291 1200 1225 1233 1332 1546 1423 1332 1194 1032 1115 1203 1190 1017 836 821 723 790 794 634 919 1065 950 1322 1004 1082
725 1346 1291 1659 1850 2068 2162 2084 1967 1694 1730 1831 1727 1770 1674 1701 1266 1583 1818 1564 1373 1372 1324 1317 1351 1467 1457 1372 1032 998 900 609 625 729 813 760 779 410 631 834 1063 1086 998
1072 1173 1306 1549 1787 1911 1938 1844 1817 1914 1758 1693 1648 1711 1618 1698 1474 1856 1686 1406 1302 1334 1356 1333 1338 1295 1243 1304 1267 993 839 688 743 752 886 799 710 702 736 1054 685 687 574
542 1342 1500 1435 1958 1828 1852 1869 1839 1692 1782 1643 1886 1489 1170 1299 1744 1665 1525 1494 1474 1418 1281 1128 976 794 626 516 494 490 543 684 1082 1299 929 884 771 1119 872 656 987 1161 1092
390 951 1503 1442 1667 1808 1827 1843 1798 1710 1663 1593 1487 1426 1125 1001 1440 1378 1105 1171 1016 948 926 856 848 837 844 798 767 643 704 741 939 1033 1004 812 1023 848 1339 434 546 526 530
588 807 1021 1130 1436 1405 1658 1513 1173 1713 1708 1647 1010 1077 1045 1028 1171 1120 1029 852 821 543 352 415 571 863 1126 1103 1031 954 945 1168 719 152 315 170 495 721 1298 779 294 713 934
650 720 951 1495 1542 1501 1339 1286 662 1380 1699 1350 1796 1483 1066 1095 1066 995 745 412 430 735 1074 1423 1714 2141 2265 2023 1611 1237 1530 1057 108 0 43 73 444 844 1119 1701 1022 1101 1054
117 452 770 1478 1056 1131 1114 868 894 1534 1600 1436 1611 1537 1361 784 479 321 397 719 1025 1317 1679 1571 972 852 1198 1409 1349 853 1191 732 77 0 0 233 518 912 1101 1865 1336 1039 1045
586 742 620 900 1194 1464 1596 867 1247 1580 1122 818 938 951 410 308 341 442 603 766 918 1364 1017 666 862 822 180 552 651 671 542 40 29 3 39 125 423 807 1302 1111 890 689 1005
586 394 405 406 100 452 1156 708 802 1161 958 518 498 246 296 456 737 1069 1211 1085 1128 1981 727 271 114 0 0 90 1030 796 9 169 0 0 0 247 55 657 1242 1759 1352 1361 881
433 532 325 7 0 0 178 178 66 329 242 267 284 357 510 755 972 844 93 142 359 455 150 139 0 0 13 149 427 1246 348 20 0 0 0 93 217 474 1036 1290 1835 1772 1799
354 305 268 161 0 337 967 619 50 4 177 359 432 482 747 909 510 19 5 0 5 1 38 193 167 88 392 110 33 178 490 184 0 0 38 245 620 384 1005 766 1105 1803 2006
115 53 258 118 38 390 330 569 761 453 555 856 1043 1260 953 1196 634 84 0 0 0 8 22 41 257 138 150 50 295 370 138 458 42 153 89 480 510 767 1146 763 747 838 1381
12 3 35 3 9 177 1 298 564 316 502 939 924 558 157 206 605 126 0 0 0 1 14 125 315 187 30 536 817 862 777 78 505 262 302 1036 678 1172 1503 1172 1226 1003 1084
0 0 0 0 257 134 315 238 511 352 409 321 813 202 212 988 809 223 60 9 37 40 77 169 284 131 104 122 596 470 458 360 763 866 756 1016 1197 309 570 692 738 664 796
0 0 0 0 107 225 460 307 274 281 269 506 842 876 799 1406 1393 833 337 344 437 216 236 244 475 33 0 0 0 42 10 11 787 625 1034 1154 953 411 618 624 712 779 695
0 9 4 45 116 142 664 309 118 234 476 877 885 972 1156 1231 1135 885 1525 1090 880 1473 1282 876 573 88 60 95 107 39 32 17 724 475 949 1042 909 1033 685 682 644 656 702
0 29 127 249 102 151 491 270 395 537 254 359 1100 643 767 1140 1171 1241 1269 1465 858 1391 1134 980 799 447 198 438 563 817 1144 713 430 134 444 465 0 41 931 579 256 659 638
0 9 13 132 68 13 369 606 631 655 105 289 906 652 969 1058 1055 1307 823 1241 1128 1549 223 8 587 1212 818 964 1239 1450 1386 1368 521 236 10 12 24 84 525 890 931 919 1031
0 1 0 50 33 0 461 641 602 567 31 258 418 914 1239 1086 1192 1011 756 1507 1712 1577 16 0 0 553 996 1323 1586 1210 1235 1238 708 466 390 237 122 0 434 853 919 1244 943
0 0 0 25 33 21 298 238 314 303 0 44 172 1147 1096 620 1689 1088 1040 1538 1686 1562 458 392 227 298 1307 1659 1295 1088 1093 716 561 487 90 67 133 0 468 735 821 921 813
2 0 0 37 56 2 380 90 302 346 477 127 202 1273 900 919 1309 877 1303 896 1125 1422 1155 965 642 840 1406 1729 1453 936 770 629 671 200 193 226 143 318 545 692 791 808 580
82 14 9 14 87 3 386 97 264 738 595 672 797 747 617 646 900 781 766 1108 1342 1383 1614 1488 1502 1567 1519 1553 1621 1099 731 613 1006 700 582 458 435 552 489 434 853 681 419
284 115 50 7 216 82 88 533 197 505 308 569 141 598 671 790 340 587 843 1083 1048 1344 1357 1889 2072 1865 1565 1631 1281 1306 1110 1087 1144 998 698 423 403 256 331 713 747 360 48
418 246 121 75 156 221 69 560 758 701 258 561 733 283 586 661 319 662 586 586 954 1438 1388 1805 1839 1868 1714 1651 1374 1197 1061 1275 922 990 662 295 306 350 254 242 222 0 0
474 339 256 144 96 400 129 354 732 1081 267 502 952 1248 291 480 481 391 581 866 717 983 1382 1819 1692 1686 1625 1651 1354 1119 1376 1120 656 355 135 176 157 0 0 0 0 0 0
CIN
-49 -14 -1 -1 -0 -4 -4 -1 -4 -0 -6 -0 -0 -0 -0 -0 -0 -6 -9 -7 -4 -1 -1 -5 -8 -13 -28 -33 -24 -19 -25 -33 -32 -31 -28 -19 -22 -8 -3 -2 -0 -3 -0
-56 -4 -3 -1 -0 -0 -0 -0 -0 -1 -1 -0 -1 -0 -3 -0 -5 -0 -0 -0 -0 -0 -0 -6 -11 -9 -19 -23 -39 -30 -34 -45 -43 -41 -35 -31 -29 -41 -15 -6 -0 -1 -0
-21 -16 -4 -1 -0 -0 -0 -0 -0 -0 -1 -1 -2 -0 -1 -0 -0 -0 -0 -0 -0 -0 -1 -6 -19 -27 -33 -32 -40 -46 -28 -30 -27 -15 -20 -25 -23 -32 -21 -10 -15 -8 -6
-76 -12 -3 -3 -0 -0 -0 -0 -0 -2 -0 -0 -0 -0 -2 -0 -0 -0 -0 -3 -13 -21 -33 -43 -53 -63 -84 -97 -93 -82 -74 -54 -29 -15 -15 -12 -15 -11 -22 -41 -23 -1 -0
-87 -39 -3 -5 -0 -0 -0 -0 -0 -0 -0 -1 -0 -0 -7 -21 -8 -21 -41 -45 -52 -53 -54 -66 -70 -77 -70 -74 -78 -77 -58 -47 -41 -41 -36 -43 -23 -36 -23 -67 -60 -66 -65
-68 -49 -30 -12 -0 -0 -0 -1 -11 -2 -0 -0 -15 -14 -16 -31 -32 -34 -46 -59 -65 -80 -98 -98 -88 -74 -63 -86 -83 -58 -40 -36 -79 -157 -135 -153 -24 -37 -29 -36 -95 -48 -25
-66 -68 -35 -3 -0 -0 -3 -4 -41 -5 -0 -1 -0 -0 -24 -22 -29 -34 -52 -87 -91 -83 -70 -54 -42 -17 -14 -29 -22 -20 -15 -75 -140 -0 -183 -187 -100 -45 -39 -13 -35 -30 -24
-148 -100 -56 -1 -6 -3 -7 -21 -24 -1 -0 -3 -3 -1 -12 -56 -81 -110 -93 -77 -79 -60 -37 -17 -9 -11 -9 -9 -5 -2 -4 -92 -213 -0 -0 -154 -123 -47 -52 -11 -28 -41 -29
-97 -76 -83 -38 -4 -0 -0 -25 -11 -2 -20 -47 -38 -37 -84 -104 -94 -97 -92 -93 -70 -42 -11 -3 -13 -37 -136 -120 -58 -11 -27 -159 -270 -72 -168 -172 -114 -72 -46 -57 -58 -68 -35
-67 -98 -99 -102 -152 -77 -10 -47 -40 -20 -42 -79 -74 -103 -97 -84 -73 -75 -68 -26 -14 -5 -11 -150 -174 -0 -0 -189 -38 -19 -67 -131 -0 -0 -0 -195 -175 -85 -50 -29 -34 -19 -34
-53 -82 -104 -40 -0 -0 -130 -127 -186 -92 -111 -126 -97 -86 -92 -86 -79 -11 -147 -192 -119 -95 -82 -151 -0 -56 -121 -162 -100 -38 -110 -230 -0 -0 -0 -157 -166 -126 -77 -63 -29 -13 -0
-44 -68 -99 -116 -0 -79 -38 -64 -125 -109 -121 -96 -82 -78 -64 -83 -79 -92 -80 -0 -78 -56 -170 -74 -95 -191 -134 -228 -226 -158 -129 -218 -0 -0 -117 -177 -145 -144 -95 -105 -75 -26 -4
-81 -152 -69 -93 -132 -56 -62 -68 -71 -76 -66 -64 -40 -43 -93 -69 -54 -166 -0 -0 -42 -317 -309 -323 -89 -156 -110 -201 -159 -166 -163 -174 -246 -130 -174 -163 -150 -136 -95 -104 -101 -94 -53
-206 -188 -192 -145 -65 -64 -8 -69 -56 -53 -67 -45 -72 -75 -114 -147 -105 -262 -0 -0 -0 -65 -292 -200 -219 -156 -230 -60 -57 -86 -83 -191 -146 -164 -159 -105 -130 -86 -59 -87 -72 -70 -55
-0 -0 -0 -0 -42 -77 -52 -71 -53 -37 -42 -36 -57 -98 -92 -60 -75 -164 -242 -85 -94 -321 -255 -194 -112 -188 -137 -71 -73 -65 -56 -60 -69 -77 -91 -89 -62 -149 -50 -68 -67 -76 -58
-0 -0 -0 -60 -123 -49 -26 -39 -43 -28 -22 -25 -41 -43 -52 -34 -30 -76 -158 -142 -148 -227 -206 -175 -84 -111 -0 -0 -0 -97 -35 -102 -43 -47 -62 -59 -48 -79 -48 -63 -58 -48 -38
-0 -346 -326 -271 -138 -120 -41 -33 -46 -29 -18 -17 -23 -20 -26 -20 -25 -29 -23 -26 -52 -65 -64 -48 -55 -85 -95 -172 -146 -109 -119 -177 -104 -133 -101 -108 -92 -55 -43 -13 -25 -34 -36
-0 -347 -221 -144 -215 -164 -61 -74 -32 -21 -36 -26 -28 -20 -29 -23 -22 -24 -29 -21 -34 -43 -56 -64 -105 -102 -121 -129 -114 -94 -67 -78 -160 -269 -221 -181 -0 -108 -62 -58 -129 -12 -33
-0 -441 -201 -232 -278 -131 -104 -50 -33 -38 -67 -41 -24 -27 -31 -18 -17 -21 -24 -26 -30 -60 -109 -105 -118 -99 -106 -86 -85 -77 -63 -56 -194 -295 -402 -399 -142 -276 -76 -40 -22 -12 -27
-0 -122 -0 -356 -370 -0 -121 -67 -63 -61 -135 -45 -58 -20 -22 -19 -18 -20 -36 -21 -25 -51 -144 -0 -0 -141 -103 -60 -51 -73 -60 -98 -182 -199 -246 -266 -232 -0 -43 -18 -39 -15 -7
-0 -0 -0 -426 -409 -415 -189 -170 -131 -102 -0 -141 -83 -23 -16 -36 -13 -26 -39 -20 -23 -33 -129 -154 -187 -188 -77 -33 -61 -98 -60 -101 -127 -147 -245 -262 -218 -0 -37 -27 -112 -92 -71
-248 -0 -0 -415 -410 -357 -194 -268 -166 -123 -69 -119 -93 -25 -31 -19 -19 -61 -46 -96 -66 -41 -71 -94 -189 -141 -70 -24 -14 -51 -127 -91 -55 -169 -137 -89 -130 -70 -69 -85 -73 -91 -145
-257 -366 -422 -98 -372 -269 -191 -291 -202 -83 -66 -52 -45 -39 -59 -92 -65 -114 -125 -90 -69 -64 -60 -86 -63 -31 -30 -36 -29 -16 -104 -93 -13 -30 -28 -32 -29 -71 -100 -87 -74 -122 -153
-154 -244 -306 -383 -231 -371 -338 -150 -219 -126 -106 -50 -152 -70 -81 -103 -171 -156 -148 -117 -119 -81 -70 -25 -12 -14 -20 -14 -34 -32 -32 -15 -2 -5 -22 -33 -53 -74 -36 -14 -39 -130 -260
-140 -198 -231 -311 -263 -241 -386 -138 -95 -96 -146 -67 -45 -113 -93 -105 -173 -149 -139 -138 -107 -55 -55 -26 -13 -8 -9 -10 -25 -31 -48 -27 -21 -2 -8 -38 -47 -21 -26 -58 -69 -81 -0
-171 -174 -212 -248 -307 -199 -330 -196 -108 -65 -152 -89 -53 -38 -147 -129 -136 -158 -136 -92 -106 -74 -43 -29 -12 -9 -10 -20 -30 -48 -15 -8 -12 -26 -89 -54 -31 -0 -0 -0 -0 -0 -0
Wind_Speed
27 28 27 27 27 27 26 25 25 25 24 12 14 16 21 24 24 26 26 26 26 25 25 25 25 23 14 24 22 20 16 16 16 15 15 13 14 14 15 17 17 17 18
31 28 28 28 27 27 26 26 25 24 22 21 21 22 22 24 24 25 25 26 26 26 25 25 25 25 24 23 22 22 21 21 20 17 15 16 15 14 12 10 17 16 17
30 30 29 28 27 27 27 26 25 24 24 23 24 24 24 24 23 25 25 25 25 25 25 24 23 21 22 21 20 20 20 20 20 19 9 9 16 17 15 14 13 14 15
31 30 29 29 28 27 27 26 25 24 24 24 24 23 23 24 24 24 23 23 24 24 23 22 21 20 19 17 17 18 19 19 19 18 17 18 21 18 15 13 13 14 13
31 30 30 29 27 27 26 26 25 24 23 23 23 23 22 23 23 22 22 21 21 20 17 15 16 16 15 14 15 15 16 15 16 17 15 15 20 17 14 13 14 13 14
32 30 29 28 27 27 26 26 25 25 24 23 23 22 22 22 21 19 18 17 15 13 14 14 15 15 15 14 15 15 15 15 17 17 17 12 16 16 15 14 11 12 12
30 30 29 28 27 27 27 26 25 25 23 23 22 23 22 21 18 16 14 14 13 14 14 14 14 15 15 14 14 14 15 16 13 12 15 12 10 14 16 16 15 12 11
29 30 29 28 27 27 27 26 25 24 23 23 23 23 22 21 19 17 13 12 12 12 11 11 12 13 16 16 14 12 15 17 14 15 15 11 16 14 15 16 15 13 11
30 29 28 28 27 27 26 25 25 23 23 23 23 23 22 21 19 17 15 12 10 9 8 15 14 16 15 12 13 15 16 15 19 20 17 16 15 15 15 15 15 13 12
27 29 28 27 26 26 25 24 24 23 23 23 23 23 22 20 18 16 12 7 10 10 22 30 8 8 11 9 8 17 14 15 17 19 18 17 15 14 13 13 13 12 11
28 28 27 27 27 26 25 24 24 23 23 24 23 22 21 21 20 5 27 20 12 10 18 30 32 11 7 5 5 6 20 19 17 17 15 17 16 15 14 13 12 12 11
27 26 26 26 25 26 24 25 25 24 24 23 22 21 20 19 19 15 29 30 8 6 6 2 7 4 6 7 9 8 14 16 16 16 16 17 15 14 13 13 13 11 10
27 26 25 25 25 25 23 24 24 23 22 21 20 20 16 11 18 14 27 27 21 16 2 22 28 3 11 5 9 10 14 13 12 8 15 13 12 13 13 13 11 10 9
24 25 24 24 24 24 22 23 22 21 21 21 20 19 17 11 25 22 19 22 18 14 7 24 19 17 16 19 10 13 11 10 11 10 9 9 9 9 14 11 8 7 7
22 22 23 24 23 24 22 19 19 22 23 23 22 22 18 12 22 21 17 16 19 14 8 4 8 10 10 8 12 14 23 27 14 12 9 8 9 6 9 8 7 7 7
20 21 22 22 22 22 21 20 23 24 21 22 22 19 18 15 14 16 15 15 14 14 9 7 5 8 12 9 3 13 21 25 22 17 11 9 8 8 5 6 3 3 1
19 20 21 21 22 22 20 21 22 20 20 20 21 18 17 15 12 12 12 16 17 17 18 15 13 14 11 13 11 16 20 25 27 26 21 18 18 19 13 25 4 7 3
18 19 20 21 23 23 20 23 21 18 19 20 19 18 16 14 12 10 14 9 12 19 17 13 11 13 11 4 5 15 23 23 22 24 21 16 20 19 20 6 1 5 19
19 19 20 22 23 23 22 23 20 16 19 16 17 18 17 14 12 10 9 6 11 19 18 16 12 12 6 8 16 15 18 19 18 20 21 20 20 23 22 11 7 14 13
17 18 19 21 22 23 23 23 20 18 18 16 15 20 19 15 13 10 8 7 10 14 5 7 16 18 18 17 19 8 14 27 22 23 22 20 19 24 22 21 20 21 21
15 16 20 21 22 21 23 24 21 20 19 17 17 21 18 14 15 10 6 8 6 7 1 4 3 10 13 17 23 21 25 28 29 26 22 20 20 21 21 23 23 24 23
18 17 19 20 22 21 22 24 23 20 18 17 16 21 16 12 11 8 7 4 2 1 3 2 8 10 10 11 16 18 24 25 34 20 20 21 20 22 22 21 23 23 23
17 19 18 21 22 22 21 24 22 18 16 17 18 18 16 13 11 9 7 5 3 3 2 4 8 10 6 8 8 22 23 22 23 17 19 20 25 22 21 21 21 22 22
17 18 18 20 24 23 23 24 22 19 18 18 18 17 16 15 12 11 9 7 5 3 1 4 7 9 10 8 13 22 19 15 18 18 20 25 24 23 21 20 22 23 23
17 18 18 18 24 27 26 25 23 21 20 17 16 15 15 15 13 11 9 8 8 8 6 7 9 10 12 15 18 18 21 23 23 20 22 24 25 24 26 26 24 25 26
14 18 18 19 23 28 27 26 24 22 21 19 16 15 17 16 12 9 8 9 8 8 8 9 9 12 13 17 18 22 24 22 21 23 22 22 24 26 25 25 23 24 26
Wind_Direction
141 127 129 123 111 113 116 121 110 114 94 11 20 28 51 65 69 79 88 93 105 109 115 120 122 132 107 87 56 42 15 17 32 33 39 33 47 51 60 81 78 69 80
120 121 125 117 106 104 106 105 104 93 66 60 56 57 59 74 77 84 88 96 105 106 113 113 115 113 107 92 85 85 80 81 76 63 53 59 52 51 42 343 89 76 84
114 120 123 119 115 113 109 110 105 98 98 93 94 91 89 80 75 88 84 91 93 102 105 111 118 124 110 90 98 93 90 99 101 92 335 355 71 79 71 53 58 68 73
118 122 124 120 120 120 118 118 117 119 117 112 113 115 108 100 99 82 77 77 87 100 103 108 107 107 115 119 115 100 105 120 119 131 176 209 153 110 82 61 61 71 68
122 117 122 122 125 124 124 120 122 125 127 125 120 123 126 119 113 102 97 104 110 119 135 152 153 136 129 154 154 149 140 153 140 141 167 217 142 112 90 77 85 85 85
110 113 121 123 123 123 124 122 119 121 122 120 122 125 128 132 134 135 135 143 158 184 179 175 175 173 163 164 163 163 166 159 129 143 99 353 113 111 109 104 79 85 83
107 115 121 124 122 116 116 120 113 115 121 115 121 119 120 126 142 154 161 166 172 165 158 164 181 206 210 194 178 149 138 128 147 129 272 289 334 90 112 117 115 94 87
109 116 120 119 122 117 115 113 114 116 118 116 116 117 121 128 134 146 163 171 164 166 178 184 207 222 269 244 219 174 103 89 74 133 110 344 113 99 106 114 111 110 97
108 113 116 119 121 116 116 113 116 117 113 119 119 118 125 131 133 139 145 158 165 183 215 306 279 282 281 239 241 284 70 112 108 129 126 151 113 107 108 115 118 112 109
105 112 113 117 119 121 120 114 117 113 117 126 125 126 131 137 143 144 152 246 255 258 337 37 200 235 222 249 209 59 55 145 117 130 134 121 113 112 108 117 120 117 116
115 115 113 115 116 118 118 115 118 118 122 129 134 133 142 132 131 83 32 357 291 256 1 57 66 153 217 199 251 310 99 118 130 139 140 109 112 121 122 124 127 132 130
114 117 117 113 118 117 118 117 118 119 126 132 139 138 136 143 72 39 38 24 129 191 279 225 150 262 232 200 211 152 131 121 137 148 128 110 111 120 123 128 132 134 132
119 116 111 116 120 125 123 120 122 123 129 138 141 133 163 179 22 114 72 95 117 110 312 11 40 181 174 100 147 134 96 127 145 131 195 121 113 129 125 121 124 129 133
107 114 112 120 123 136 132 130 130 126 131 146 128 162 141 159 68 89 98 86 108 119 125 55 104 108 105 77 100 96 96 146 124 101 125 157 129 131 145 107 100 113 132
107 110 114 118 124 131 137 141 143 135 125 129 129 126 113 144 92 98 111 104 79 101 115 161 168 110 101 122 94 86 56 28 92 80 80 116 91 64 148 82 112 129 145
107 108 114 115 129 142 142 141 124 121 126 135 133 135 131 124 122 114 100 88 89 93 108 139 152 300 323 104 103 88 55 38 46 50 73 80 106 48 75 43 116 90 95
108 109 113 121 127 144 149 145 138 136 133 126 142 150 140 137 138 128 98 87 78 88 90 86 93 86 87 85 82 68 54 33 33 33 44 41 21 19 1 327 197 359 357
112 113 115 118 130 137 150 152 149 154 145 130 140 138 149 150 148 135 95 107 95 86 88 91 90 82 72 15 334 60 45 39 40 32 30 40 26 20 16 39 351 354 344
125 122 126 125 128 134 147 157 161 166 148 159 151 143 148 152 147 141 129 133 103 87 84 73 86 76 341 32 55 53 46 44 45 33 25 22 7 11 8 35 51 8 18
124 127 128 129 131 132 144 157 166 164 155 163 167 137 145 142 143 140 142 120 103 98 97 63 71 64 62 55 51 39 51 34 49 33 23 27 26 16 17 18 7 6 8
131 128 138 134 137 130 142 154 161 155 151 152 172 143 145 142 118 143 166 122 125 101 50 331 28 65 56 51 42 42 40 35 30 26 36 35 31 30 27 26 12 16 14
143 139 143 142 143 137 139 155 158 157 162 163 170 144 166 178 163 174 151 177 208 154 297 34 63 59 49 45 45 44 36 34 17 46 42 40 37 35 30 28 23 30 22
149 149 144 152 150 148 144 162 172 179 169 154 142 139 153 165 158 167 171 167 156 122 79 59 58 53 18 353 3 40 34 29 25 48 46 38 32 33 31 35 42 35 28
155 151 149 154 160 158 157 168 170 166 152 148 139 141 147 150 145 147 136 128 120 107 48 61 50 51 38 14 33 37 33 30 36 37 34 34 34 34 38 44 44 41 31
157 156 154 154 164 170 169 173 181 170 159 170 159 159 152 143 147 147 131 114 96 81 72 59 49 41 44 43 39 34 34 41 42 42 35 35 40 35 37 45 52 34 24
158 159 158 159 165 172 174 172 175 181 168 170 174 163 135 139 158 163 153 114 96 80 69 60 52 49 47 46 39 38 39 44 48 46 45 45 46 46 47 45 46 37 31